DGFRA EDDN-EDLP

Flight info

Callsign DGFRA
Flight time 0h 51m
Altitude 8500
Route NOVEMBER DCT FUL DCT WRB DCT SIERRA
Aircraft DA42/L-SBDGRY/S

Departure

Time 2026-05-08 12:02
Airport Nuremberg Airport (EDDN)

Arrival

Time 2026-05-08 12:53
Airport Paderborn Lippstadt Airport (EDLP)
Time Latitude Longitude Altitude Speed Heading
2026-05-08 11:46 49.49460 11.06873 1021 ft 0 kts 278°
2026-05-08 11:55 49.49470 11.06914 1021 ft 7 kts
2026-05-08 11:56 49.49517 11.06924 1021 ft 7 kts 24°
2026-05-08 11:56 49.49514 11.07033 1021 ft 12 kts 89°
2026-05-08 11:56 49.49504 11.07189 1021 ft 13 kts 43°
2026-05-08 11:56 49.49590 11.07208 1020 ft 9 kts 12°
2026-05-08 11:57 49.49607 11.07212 1020 ft 0 kts
2026-05-08 11:57 49.49608 11.07212 1020 ft 3 kts
2026-05-08 11:58 49.49626 11.07341 1020 ft 23 kts 95°
2026-05-08 11:58 49.49603 11.07565 1020 ft 21 kts 101°
2026-05-08 11:58 49.49585 11.07773 1021 ft 19 kts 98°
2026-05-08 11:59 49.49546 11.08176 1022 ft 19 kts 98°
2026-05-08 11:59 49.49542 11.08335 1024 ft 12 kts 45°
2026-05-08 11:59 49.49609 11.08372 1027 ft 9 kts 53°
2026-05-08 11:59 49.49649 11.08454 1029 ft 11 kts 56°
2026-05-08 12:00 49.49701 11.08552 1030 ft 5 kts 23°
2026-05-08 12:00 49.49701 11.08553 1030 ft 0 kts 20°
2026-05-08 12:01 49.49790 11.08552 1032 ft 13 kts 316°
2026-05-08 12:01 49.49799 11.08513 1031 ft 0 kts 278°
2026-05-08 12:01 49.49824 11.08260 1028 ft 57 kts 279°
2026-05-08 12:01 49.49898 11.07415 1102 ft 93 kts 276°
2026-05-08 12:02 49.49972 11.06758 1351 ft 95 kts 294°
2026-05-08 12:02 49.50435 11.06010 1690 ft 103 kts 319°
2026-05-08 12:02 49.50975 11.05305 2166 ft 102 kts 319°
2026-05-08 12:02 49.51554 11.04613 2483 ft 113 kts 320°
2026-05-08 12:03 49.52224 11.03763 2542 ft 134 kts 319°
2026-05-08 12:03 49.52983 11.02785 2540 ft 149 kts 319°
2026-05-08 12:03 49.53785 11.01716 2552 ft 156 kts 318°
2026-05-08 12:03 49.54633 11.00623 2492 ft 162 kts 319°
2026-05-08 12:04 49.55488 10.99512 2500 ft 160 kts 320°
2026-05-08 12:04 49.56337 10.98397 2478 ft 160 kts 317°
2026-05-08 12:04 49.57182 10.97334 2489 ft 159 kts 323°
2026-05-08 12:04 49.58082 10.96310 2451 ft 161 kts 323°
2026-05-08 12:05 49.58975 10.95290 2476 ft 159 kts 322°
2026-05-08 12:05 49.59846 10.94227 2468 ft 160 kts 318°
2026-05-08 12:05 49.60641 10.93058 2507 ft 157 kts 315°
2026-05-08 12:05 49.61421 10.91867 2465 ft 159 kts 314°
2026-05-08 12:06 49.62200 10.90681 2617 ft 152 kts 315°
2026-05-08 12:06 49.62896 10.89695 3234 ft 124 kts 318°
2026-05-08 12:06 49.63485 10.88655 3418 ft 137 kts 303°
2026-05-08 12:06 49.64100 10.87469 3429 ft 145 kts 319°
2026-05-08 12:07 49.64892 10.86445 3413 ft 151 kts 319°
2026-05-08 12:07 49.65608 10.85280 3460 ft 151 kts 311°
2026-05-08 12:07 49.66376 10.84184 3508 ft 152 kts 319°
2026-05-08 12:07 49.67205 10.83136 3509 ft 155 kts 321°
2026-05-08 12:08 49.68056 10.82093 3513 ft 157 kts 321°
2026-05-08 12:08 49.68915 10.81051 3544 ft 156 kts 321°
2026-05-08 12:08 49.69714 10.80083 3891 ft 137 kts 322°
2026-05-08 12:08 49.70448 10.79192 4268 ft 132 kts 321°
2026-05-08 12:09 49.71222 10.78255 4327 ft 150 kts 321°
2026-05-08 12:09 49.72056 10.77247 4427 ft 156 kts 321°
2026-05-08 12:09 49.72923 10.76197 4420 ft 164 kts 321°
2026-05-08 12:09 49.73806 10.75099 4412 ft 162 kts 314°
2026-05-08 12:10 49.74319 10.73580 4420 ft 160 kts 290°
2026-05-08 12:10 49.74814 10.72047 4448 ft 159 kts 303°
2026-05-08 12:10 49.75563 10.70817 4525 ft 156 kts 316°
2026-05-08 12:10 49.76383 10.69688 4523 ft 159 kts 318°
2026-05-08 12:11 49.77227 10.68569 4523 ft 160 kts 319°
2026-05-08 12:11 49.78079 10.67456 4524 ft 161 kts 319°
2026-05-08 12:11 49.78934 10.66341 4524 ft 161 kts 319°
2026-05-08 12:11 49.79781 10.65238 4524 ft 161 kts 319°
2026-05-08 12:12 49.80637 10.64120 4523 ft 161 kts 319°
2026-05-08 12:12 49.81496 10.62999 4522 ft 161 kts 319°
2026-05-08 12:12 49.82353 10.61882 4522 ft 161 kts 319°
2026-05-08 12:12 49.83209 10.60761 4523 ft 161 kts 319°
2026-05-08 12:13 49.84066 10.59642 4521 ft 161 kts 319°
2026-05-08 12:13 49.84922 10.58521 4521 ft 161 kts 319°
2026-05-08 12:13 49.85777 10.57401 4522 ft 161 kts 319°
2026-05-08 12:13 49.86632 10.56282 4524 ft 161 kts 319°
2026-05-08 12:14 49.87486 10.55164 4524 ft 161 kts 319°
2026-05-08 12:14 49.89593 10.52396 4524 ft 161 kts 319°
2026-05-08 12:14 49.92995 10.47935 4525 ft 160 kts 319°
2026-05-08 12:14 49.96404 10.43458 4528 ft 161 kts 319°
2026-05-08 12:15 49.99817 10.38969 4532 ft 161 kts 319°
2026-05-08 12:15 50.03234 10.34450 4531 ft 161 kts 319°
2026-05-08 12:15 50.06610 10.29858 4531 ft 161 kts 317°
2026-05-08 12:15 50.09935 10.25177 4531 ft 161 kts 317°
2026-05-08 12:16 50.13206 10.20411 4536 ft 161 kts 316°
2026-05-08 12:16 50.16422 10.15562 4535 ft 161 kts 315°
2026-05-08 12:16 50.19081 10.12423 4534 ft 161 kts 349°
2026-05-08 12:16 50.20136 10.11850 4532 ft 161 kts 330°
2026-05-08 12:17 50.21023 10.10823 4533 ft 161 kts 320°
2026-05-08 12:17 50.23496 10.07444 4536 ft 162 kts 317°
2026-05-08 12:17 50.26388 10.03406 4535 ft 162 kts 317°
2026-05-08 12:17 50.27220 10.02209 4529 ft 163 kts 309°
2026-05-08 12:18 50.27712 10.00643 4532 ft 161 kts 286°
2026-05-08 12:18 50.28004 9.98983 4824 ft 152 kts 283°
2026-05-08 12:18 50.28226 9.97539 5441 ft 127 kts 281°
2026-05-08 12:18 50.28431 9.96290 5975 ft 113 kts 283°
2026-05-08 12:19 50.28606 9.95125 6277 ft 120 kts 279°
2026-05-08 12:19 50.28841 9.93687 5967 ft 150 kts 284°
2026-05-08 12:19 50.29105 9.92035 5683 ft 161 kts 282°
2026-05-08 12:19 50.29278 9.90285 5409 ft 165 kts 274°
2026-05-08 12:20 50.29332 9.88486 5159 ft 166 kts 273°
2026-05-08 12:20 50.29382 9.86677 4888 ft 168 kts 270°
2026-05-08 12:20 50.29369 9.84871 4689 ft 164 kts 266°
2026-05-08 12:20 50.29269 9.83108 4531 ft 162 kts 264°
2026-05-08 12:21 50.29213 9.81368 4536 ft 163 kts 272°
2026-05-08 12:21 50.29331 9.79603 4534 ft 163 kts 276°
2026-05-08 12:21 50.29644 9.76238 4529 ft 163 kts 284°
2026-05-08 12:21 50.33509 9.73707 4529 ft 165 kts 355°
2026-05-08 12:22 50.38086 9.73115 4526 ft 165 kts 355°
2026-05-08 12:22 50.42658 9.72542 4524 ft 165 kts 357°
2026-05-08 12:22 50.46800 9.69888 4532 ft 164 kts 326°
2026-05-08 12:22 50.50632 9.65993 4536 ft 164 kts 326°
2026-05-08 12:23 50.54472 9.62083 4502 ft 164 kts 327°
2026-05-08 12:23 50.58071 9.58415 4014 ft 149 kts 327°
2026-05-08 12:23 50.60977 9.55434 3776 ft 159 kts 327°
2026-05-08 12:23 50.62823 9.53550 3302 ft 165 kts 328°
2026-05-08 12:24 50.64738 9.51599 3023 ft 163 kts 327°
2026-05-08 12:24 50.66557 9.49542 3033 ft 160 kts 326°
2026-05-08 12:24 50.68650 9.49558 3039 ft 157 kts 17°
2026-05-08 12:24 50.69213 9.49806 3033 ft 158 kts 15°
2026-05-08 12:25 50.70301 9.50254 3040 ft 158 kts 15°
2026-05-08 12:25 50.70845 9.50374 3036 ft 159 kts 360°
2026-05-08 12:25 50.71396 9.50319 3032 ft 159 kts 355°
2026-05-08 12:25 50.71938 9.50223 3030 ft 159 kts 353°
2026-05-08 12:26 50.72481 9.50063 3036 ft 159 kts 346°
2026-05-08 12:26 50.73013 9.49826 3033 ft 159 kts 344°
2026-05-08 12:26 50.73543 9.49570 3032 ft 159 kts 343°
2026-05-08 12:26 50.74880 9.48906 3030 ft 159 kts 342°
2026-05-08 12:27 50.76990 9.47854 3039 ft 159 kts 343°
2026-05-08 12:27 50.79073 9.46723 3028 ft 159 kts 331°
2026-05-08 12:27 50.80695 9.44387 3034 ft 158 kts 314°
2026-05-08 12:27 50.82216 9.41854 3040 ft 159 kts 314°
2026-05-08 12:28 50.83710 9.39344 3034 ft 159 kts 314°
2026-05-08 12:28 50.85213 9.36783 3047 ft 159 kts 314°
2026-05-08 12:28 50.86724 9.34234 3039 ft 158 kts 317°
2026-05-08 12:28 50.88782 9.33340 3046 ft 156 kts 353°
2026-05-08 12:29 50.90913 9.32705 3044 ft 156 kts 349°
2026-05-08 12:29 50.93043 9.32062 3052 ft 156 kts 350°
2026-05-08 12:29 50.95173 9.31348 3059 ft 157 kts 348°
2026-05-08 12:29 50.97313 9.30575 3060 ft 159 kts 348°
2026-05-08 12:30 50.99485 9.29790 3056 ft 161 kts 348°
2026-05-08 12:30 51.01661 9.28966 3051 ft 161 kts 340°
2026-05-08 12:30 51.02779 9.27692 3135 ft 159 kts 330°
2026-05-08 12:30 51.03276 9.27276 3076 ft 164 kts 336°
2026-05-08 12:31 51.03814 9.26968 3057 ft 165 kts 344°
2026-05-08 12:31 51.04417 9.26706 3053 ft 164 kts 347°
2026-05-08 12:31 51.06519 9.25951 3056 ft 161 kts 349°
2026-05-08 12:31 51.07719 9.25550 3055 ft 160 kts 349°
2026-05-08 12:32 51.08262 9.25370 3054 ft 159 kts 349°
2026-05-08 12:32 51.08806 9.25189 3031 ft 161 kts 349°
2026-05-08 12:32 51.09358 9.25007 3007 ft 162 kts 349°
2026-05-08 12:32 51.09911 9.24824 3005 ft 162 kts 349°
2026-05-08 12:33 51.10452 9.24644 3007 ft 161 kts 349°
2026-05-08 12:33 51.11001 9.24461 3009 ft 161 kts 349°
2026-05-08 12:33 51.11549 9.24277 3008 ft 161 kts 349°
2026-05-08 12:33 51.12096 9.24094 3007 ft 161 kts 349°
2026-05-08 12:34 51.13825 9.23511 3011 ft 159 kts 349°
2026-05-08 12:34 51.15992 9.22784 3009 ft 159 kts 348°
2026-05-08 12:34 51.18155 9.22057 3008 ft 159 kts 349°
2026-05-08 12:34 51.20320 9.21328 3007 ft 159 kts 349°
2026-05-08 12:35 51.22484 9.20602 3006 ft 160 kts 349°
2026-05-08 12:35 51.24480 9.19934 2819 ft 144 kts 349°
2026-05-08 12:35 51.26422 9.19275 2514 ft 146 kts 349°
2026-05-08 12:35 51.28155 9.18687 2499 ft 153 kts 349°
2026-05-08 12:36 51.28679 9.18511 2496 ft 154 kts 349°
2026-05-08 12:36 51.29205 9.18333 2498 ft 155 kts 349°
2026-05-08 12:36 51.30248 9.17983 2502 ft 157 kts 349°
2026-05-08 12:36 51.32395 9.17257 2496 ft 157 kts 350°
2026-05-08 12:37 51.34536 9.16533 2498 ft 159 kts 350°
2026-05-08 12:37 51.36701 9.15800 2493 ft 159 kts 349°
2026-05-08 12:37 51.38825 9.15080 2490 ft 157 kts 349°
2026-05-08 12:37 51.40243 9.14599 2486 ft 156 kts 349°
2026-05-08 12:38 51.40772 9.14420 2491 ft 155 kts 350°
2026-05-08 12:38 51.41300 9.14239 2493 ft 156 kts 349°
2026-05-08 12:38 51.41832 9.14060 2495 ft 157 kts 349°
2026-05-08 12:38 51.42365 9.13880 2495 ft 157 kts 348°
2026-05-08 12:39 51.42899 9.13700 2494 ft 157 kts 349°
2026-05-08 12:39 51.43435 9.13518 2492 ft 158 kts 349°
2026-05-08 12:39 51.43971 9.13338 2488 ft 157 kts 349°
2026-05-08 12:39 51.44503 9.13158 2492 ft 156 kts 349°
2026-05-08 12:40 51.45033 9.12981 2494 ft 156 kts 351°
2026-05-08 12:40 51.45549 9.12744 2499 ft 157 kts 341°
2026-05-08 12:40 51.46019 9.12307 2520 ft 157 kts 321°
2026-05-08 12:40 51.46719 9.11204 2527 ft 159 kts 311°
2026-05-08 12:41 51.47292 9.09673 2483 ft 162 kts 294°
2026-05-08 12:41 51.47589 9.07936 2474 ft 162 kts 280°
2026-05-08 12:41 51.47799 9.06165 2471 ft 162 kts 282°
2026-05-08 12:41 51.48189 9.04466 2470 ft 163 kts 292°
2026-05-08 12:42 51.48606 9.02780 2452 ft 162 kts 292°
2026-05-08 12:42 51.49031 9.01112 2471 ft 160 kts 292°
2026-05-08 12:42 51.49430 8.99442 2475 ft 160 kts 292°
2026-05-08 12:42 51.49888 8.97843 2490 ft 159 kts 297°
2026-05-08 12:43 51.50432 8.96296 2493 ft 160 kts 303°
2026-05-08 12:43 51.51064 8.94814 2484 ft 161 kts 306°
2026-05-08 12:43 51.51699 8.93337 2522 ft 160 kts 305°
2026-05-08 12:43 51.52305 8.91820 2543 ft 161 kts 303°
2026-05-08 12:44 51.52897 8.90278 2643 ft 166 kts 301°
2026-05-08 12:44 51.53385 8.88588 2709 ft 166 kts 291°
2026-05-08 12:44 51.53745 8.86836 2730 ft 164 kts 285°
2026-05-08 12:44 51.54069 8.85082 2756 ft 164 kts 288°
2026-05-08 12:45 51.54445 8.83359 2716 ft 167 kts 289°
2026-05-08 12:45 51.54854 8.81623 2704 ft 165 kts 290°
2026-05-08 12:45 51.55251 8.79896 2701 ft 164 kts 289°
2026-05-08 12:45 51.55599 8.78160 2680 ft 162 kts 286°
2026-05-08 12:46 51.55971 8.76478 2708 ft 159 kts 295°
2026-05-08 12:46 51.56564 8.74969 2683 ft 160 kts 308°
2026-05-08 12:46 51.57274 8.73567 2497 ft 160 kts 310°
2026-05-08 12:46 51.57958 8.72238 2473 ft 149 kts 309°
2026-05-08 12:47 51.58489 8.70848 2471 ft 144 kts 295°
2026-05-08 12:47 51.58775 8.69343 2517 ft 138 kts 277°
2026-05-08 12:47 51.58780 8.67830 2507 ft 138 kts 270°
2026-05-08 12:47 51.58913 8.66290 2466 ft 142 kts 281°
2026-05-08 12:48 51.59103 8.64717 2431 ft 144 kts 283°
2026-05-08 12:48 51.59512 8.63242 2410 ft 144 kts 298°
2026-05-08 12:48 51.60081 8.61953 2487 ft 140 kts 318°
2026-05-08 12:48 51.60885 8.61111 2515 ft 139 kts 333°
2026-05-08 12:49 51.61728 8.60300 2464 ft 143 kts 331°
2026-05-08 12:49 51.62561 8.59431 2460 ft 143 kts 328°
2026-05-08 12:49 51.63285 8.58367 2464 ft 144 kts 288°
2026-05-08 12:49 51.63188 8.56811 2460 ft 142 kts 247°
2026-05-08 12:50 51.62715 8.55436 2454 ft 141 kts 238°
2026-05-08 12:50 51.62251 8.54058 2469 ft 140 kts 238°
2026-05-08 12:50 51.61586 8.53042 2465 ft 126 kts 196°
2026-05-08 12:50 51.60839 8.53257 2400 ft 105 kts 130°
2026-05-08 12:51 51.60373 8.54176 2175 ft 104 kts 127°
2026-05-08 12:51 51.59712 8.55907 1833 ft 87 kts 101°
2026-05-08 12:51 51.59699 8.56884 1610 ft 90 kts 84°
2026-05-08 12:52 51.59887 8.57813 1330 ft 87 kts 64°
2026-05-08 12:52 51.60518 8.59434 882 ft 87 kts 60°
2026-05-08 12:52 51.60846 8.60241 746 ft 86 kts 61°
2026-05-08 12:53 51.61147 8.60984 709 ft 66 kts 56°
2026-05-08 12:53 51.61334 8.61447 701 ft 36 kts 56°
2026-05-08 12:53 51.61435 8.61718 703 ft 15 kts 81°
2026-05-08 12:53 51.61439 8.61919 706 ft 15 kts 93°
2026-05-08 12:54 51.61427 8.61993 705 ft 5 kts 131°
2026-05-08 12:54 51.61361 8.62021 712 ft 17 kts 189°
2026-05-08 12:54 51.61248 8.61984 722 ft 13 kts 191°
2026-05-08 12:54 51.61175 8.61905 725 ft 16 kts 234°
2026-05-08 12:55 51.61114 8.61755 725 ft 16 kts 234°
2026-05-08 12:55 51.61052 8.61607 725 ft 13 kts 237°
2026-05-08 12:55 51.61000 8.61498 725 ft 11 kts 185°
2026-05-08 12:55 51.60946 8.61546 725 ft 6 kts 150°
2026-05-08 12:56 51.60942 8.61548 725 ft 0 kts 155°